Location: Peterborough
(44.3091°N, 78.3197°W)
Time: 23:45:33
(UTC-05:00)

Vanguard 1 Rocket - Pass Details

Date: 10 December 2023
Orbit: 654 x 4218 km, 34.3° (Epoch: 24 February)

Event Time Altitude Azimuth Distance (km) Brightness Sun altitude
Exits shadow 05:33:27 12° 249° (WSW) 7,033 11.4 -21.4°
Maximum altitude 05:54:41 59° 179° (S) 3,194 10.1 -17.7°
Drops below altitude 10° 06:06:56 10° 104° (ESE) 4,259 12.2 -15.6°
Sets 06:09:35 0° 100° (E) 4,908 13.0 -15.2°
